Regional Weather Roundup
Issued by NWS Lake Charles, LA

Home | Current Version | Previous Version | Text Only | Print | Product List | Glossary On
Versions: 1 2 3 4 5 6 7 8 9 10 11 12 13 14 15 16 17 18 19 20 21 22 23 24 25 26 27 28 29 30 31 32 33 34 35 36 37 38 39 40 41 42 43 44 45 46 47 48 49 50
000
ASUS44 KLCH 291610
RWRLCH
RWRLCH
REGIONAL WEATHER ROUNDUP
NATIONAL WEATHER SERVICE LAKE CHARLES LA
1000 AM CST THU JAN 29 2015

Note: "fair" indicates few or no clouds below 12,000 feet with no
significant weather and/or obstructions to visibility.


ACROSS SOUTHEAST TEXAS

CITY           SKY/WX    TMP DP  RH WIND       PRES   REMARKS
BEAUMONT       MOSUNNY   62  60  93 W3        30.26R
BEAUMONT CITY  FOG       57  57 100 CALM      30.27R VSB 1/4
ORANGE         CLOUDY    58  58 100 CALM      30.28R FOG
JASPER         CLOUDY    60  59  98 SW6       30.27R
$$

ACROSS CENTRAL LOUISIANA

CITY           SKY/WX    TMP DP  RH WIND       PRES   REMARKS
LEESVILLE      CLOUDY    59  57  94 W6        30.24R FOG
FULLERTON      CLOUDY    60  57  89 VRB5      30.22R FOG
ALEXANDRIA INT CLOUDY    59  57  93 S8        30.23R
ESLER FIELD    CLOUDY    60  57  89 SW10      30.24R
DERIDDER       CLOUDY    58  57  96 CALM      30.27R FOG
OAKDALE        CLOUDY    58  56  96 SW3       30.26S FOG
OPELOUSAS      CLOUDY    60  58  94 SW6       30.27R FOG
$$

ACROSS SOUTHWEST AND SOUTH CENTRAL LOUISIANA

CITY           SKY/WX    TMP DP  RH WIND       PRES   REMARKS
SULPHUR        MOSUNNY   62  62 100 W5        30.27R
LAKE CHARLES   MOSUNNY   61  60  97 SW5       30.27R
CHENNAULT INT  MOSUNNY   57  57 100 CALM      30.27R
CAMERON PHI    SUNNY     61  59  94 S3        30.29R
DEQUINCY       CLOUDY    58  58 100 CALM      30.26S FOG
JENNINGS       CLOUDY    59  59 100 W3        30.27R FOG
LAFAYETTE      CLOUDY    65  60  84 SW8       30.27R
NEW IBERIA     CLOUDY    62  57  83 S6        30.27R
ABBEVILLE      CLOUDY    62  60  96 CALM      30.27R FOG
PATTERSON      SUNNY     68  57  68 S8        30.27S
SALT POINT       N/A     66  58  75 SE7       30.26R
$$

SELECTED SITES ACROSS THE REGION

CITY           SKY/WX    TMP DP  RH WIND       PRES   REMARKS
HOUSTON BUSH   CLOUDY    63  63 100 CALM      30.26R FOG
HOUSTON HOBBY  CLOUDY    60  60 100 W3        30.26R
GALVESTON      SUNNY     66  63  90 S5        30.26R
COLLEGE STAT   CLOUDY    62  58  86 NW8       30.28R
CONROE         CLOUDY    60  58  92 SW6       30.26R
HUNTSVILLE     CLOUDY    62  57  83 W10       30.27R
LUFKIN         MOSUNNY   67  56  67 SW10      30.23S
SHREVEPORT     PTSUNNY   63  55  75 W12       30.20R
MONROE         MOSUNNY   61  53  75 SW12      30.21R
NATCHEZ MS     CLOUDY    61  55  82 S8        30.24S
BATON ROUGE    PTSUNNY   60  52  74 SE3       30.27S
N.O. INTL ARPT MOSUNNY   67  55  65 S8        30.27R
SLIDELL        SUNNY     66  51  58 S12       30.27R
$$

MARINE REPORTS

STATION/POSITION TIME  TEMP    WIND        PRES    VSBY  WAVE
                       AIR SEA DIR/SP/G                  HT/PER
                 (UTC) (F)     (DEG/KT/KT) (MB)    (MI)  (FT/S)
BUOY 30 S HIGH I 1600   60 57  160/  2/  4 1024.0R         1/ 4
SEA RIM ST PARK  1600   63     220/  3/  4 1025.1R
PORT ARTHUR      1500      53  220/  5/  5 1023.9R
SABINE PASS N    1500   63 55  210/  6/  9 1023.7R
TEXAS POINT      NOT AVBL
CALCASIEU PASS   1500   58 55  210/  5/  6   N/A
LK CHARLES BEACH 1500   55 53              1024.2R
MARSH ISLAND     1500   64     190/  3/  5   N/A
FRESH WATER LOCK 1500   62 58  200/  3/  5 1024.3R
AMERADA PASS     1500   62 46  140/  4/  7 1024.2R
$$


USA.gov is the U.S. government's official web portal to all federal, state and local government web resources and services.